Weather History for KHTS - November, 2011

Change the Weather History Date:

Monday, November 14, 2011

  Actual Average Record
Temperature  
Mean Temperature 68 °F 48 °F  
Max Temperature 72 °F 58 °F 82 °F (1993)
Min Temperature 63 °F 37 °F 13 °F (1986)
Degree Days  
Heating Degree Days 0 18  
Month to date heating degree days 194 217  
Since 1 July heating degree days 567 556  
Cooling Degree Days 3 0  
Month to date cooling degree days 3 0  
Year to date cooling degree days 1242 1132  
Growing Degree Days 18 (Base 50)    
Moisture  
Dew Point 54 °F    
Average Humidity 59    
Maximum Humidity 66    
Minimum Humidity 52    
Precipitation  
Precipitation 0.00 in 0.12 in 0.75 in (1951)
Month to date precipitation 0.08 1.54  
Year to date precipitation 53.02 37.38  
Snow  
Snow 0.00 in - - ()
Month to date snowfall 0.0  
Since 1 September snowfall 0.0  
Snow Depth 0.00 in    
Sea Level Pressure  
Sea Level Pressure 29.82 in    
Wind  
Wind Speed 14 mph (SSW)    
Max Wind Speed 22 mph    
Max Gust Speed 33 mph    
Visibility 10 miles    
Events      
T = Trace of Precipitation, MM = Missing Value Source: NWS Daily Summary

Daily Weather History Graph

Daily Weather History Graph

Search for Another Location

Airport or City:

Trip Planner

Search our weather history database for the weather conditions in past years. The results will help you decide how hot, cold, wet, or windy it might be!

Date:

Astronomy

Nov. 14, 2011 Rise Set
Actual Time 7:10 AM EST 5:18 PM EST
Civil Twilight 6:42 AM EST 5:46 PM EST
Nautical Twilight 6:10 AM EST 6:18 PM EST
Astronomical Twilight 5:38 AM EST 6:49 PM EST
Moon 8:25 PM EST (11/14) 10:26 AM EST (11/14)
Length of Visible Light 11h 04m
Length of Day
10h 08m
Waning Gibbous, 87% of the Moon is Illuminated
Nov 14
Waning Gibbous
Nov 18
Last Quarter
Nov 25
New
Dec 2
First Quarter
Dec 10
Full

Hourly Weather History & Observations

Time (EST) Temp. Dew Point Humidity Pressure Visibility Wind Dir Wind Speed Gust Speed Precip Events Conditions
12:51 AM 63.0 °F 48.0 °F 58% 29.87 in 10.0 mi SSW 13.8 mph 24.2 mph N/A   Clear
1:51 AM 64.9 °F 48.9 °F 56% 29.85 in 10.0 mi SSW 15.0 mph 23.0 mph N/A   Clear
2:51 AM 64.9 °F 50.0 °F 58% 29.86 in 10.0 mi SSW 8.1 mph 18.4 mph N/A   Clear
3:51 AM 64.0 °F 50.0 °F 60% 29.86 in 10.0 mi SSW 12.7 mph 23.0 mph N/A   Partly Cloudy
4:51 AM 64.0 °F 51.1 °F 63% 29.86 in 10.0 mi SSW 12.7 mph 20.7 mph N/A   Clear
5:51 AM 64.0 °F 51.1 °F 63% 29.86 in 10.0 mi South 15.0 mph 27.6 mph N/A   Clear
6:51 AM 64.9 °F 52.0 °F 63% 29.86 in 10.0 mi SSW 13.8 mph 25.3 mph N/A   Mostly Cloudy
7:51 AM 66.0 °F 53.1 °F 63% 29.87 in 10.0 mi SSW 17.3 mph 25.3 mph N/A   Scattered Clouds
8:51 AM 66.9 °F 54.0 °F 63% 29.87 in 10.0 mi SSW 12.7 mph 28.8 mph N/A   Overcast
9:51 AM 69.1 °F 54.0 °F 58% 29.86 in 10.0 mi SSW 13.8 mph 24.2 mph N/A   Overcast
10:51 AM 70.0 °F 55.0 °F 59% 29.87 in 10.0 mi SW 16.1 mph 26.5 mph N/A   Overcast
11:51 AM 71.1 °F 55.0 °F 57% 29.85 in 10.0 mi SW 12.7 mph 24.2 mph N/A   Overcast
12:51 PM 71.1 °F 55.0 °F 57% 29.82 in 10.0 mi SSW 13.8 mph 24.2 mph N/A   Overcast
1:51 PM 71.1 °F 55.0 °F 57% 29.81 in 10.0 mi SSW 10.4 mph 20.7 mph N/A   Overcast
2:51 PM 72.0 °F 55.9 °F 57% 29.80 in 10.0 mi South 15.0 mph 26.5 mph N/A   Overcast
3:51 PM 72.0 °F 55.9 °F 57% 29.78 in 10.0 mi SSW 10.4 mph 25.3 mph N/A   Mostly Cloudy
4:51 PM 71.1 °F 55.0 °F 57% 29.79 in 10.0 mi SSW 13.8 mph 23.0 mph N/A   Overcast
5:51 PM 70.0 °F 55.0 °F 59% 29.78 in 10.0 mi SSW 11.5 mph 24.2 mph N/A   Partly Cloudy
6:51 PM 70.0 °F 54.0 °F 57% 29.76 in 10.0 mi SSW 19.6 mph 26.5 mph N/A   Clear
7:51 PM 70.0 °F 54.0 °F 57% 29.77 in 10.0 mi SSW 12.7 mph 21.9 mph N/A   Clear
8:51 PM 69.8 °F 55.4 °F 60% 29.77 in 10.0 mi South 20.7 mph 29.9 mph N/A   Clear
9:51 PM 70.0 °F 55.9 °F 61% 29.78 in 10.0 mi SSW 15.0 mph 28.8 mph N/A   Overcast
10:51 PM 69.1 °F 57.0 °F 65% 29.79 in 10.0 mi SSW 16.1 mph 28.8 mph N/A   Clear
11:51 PM 68.0 °F 57.0 °F 68% 29.79 in 10.0 mi SSW 12.7 mph 27.6 mph N/A   Clear